Theta_e
347 347 346 345 345 345 346 347 347 348 349 350 350 350 350 350 351 350 350 349 349 347 345 345 344 344 344 344 344 344 343 345 347 348 350 345 336 332 331 331 332 332 333 336 338 340 342 343 344 345 346 346 345 345 345 344 344 343 344 343 341 340 339 338 338 338 338 338 339 340 341 346 350 351 351 352 352 352 353 353 353 352 353 353 353
347 347 347 347 346 347 348 348 348 348 349 349 350 350 350 349 350 349 349 349 348 346 345 345 344 344 345 345 345 345 345 345 346 347 351 349 342 336 332 329 331 332 333 334 334 335 336 338 338 339 340 339 338 339 338 338 339 339 339 338 337 337 337 338 338 339 340 341 343 343 344 349 352 352 353 353 353 353 353 353 353 352 352 352 352
348 349 348 347 346 347 348 348 348 348 348 349 349 350 349 349 349 349 349 348 346 345 345 344 343 344 345 345 345 346 347 346 346 347 349 349 348 346 336 328 328 330 330 330 331 332 333 334 335 335 335 334 334 334 334 334 335 336 336 336 337 338 339 341 342 343 344 344 345 345 348 352 353 353 353 353 353 353 353 352 352 351 351 349 347
349 350 349 347 346 346 348 347 347 348 348 349 349 349 349 350 351 351 349 347 346 345 346 344 344 344 344 345 345 346 347 347 346 345 348 350 351 352 346 335 327 326 327 328 330 333 335 337 337 338 338 338 338 337 337 337 337 338 339 340 341 343 344 345 346 346 346 347 347 348 351 352 352 353 353 352 352 351 350 349 347 344 341 338 333
348 348 348 348 347 347 348 347 347 348 349 349 349 349 348 349 351 352 351 348 346 346 345 343 345 345 344 344 344 343 344 346 343 343 348 350 353 354 351 345 335 328 328 329 333 338 340 343 344 345 345 345 346 345 345 344 344 344 345 345 346 347 347 348 349 348 348 348 348 350 353 351 350 350 348 347 347 344 341 339 335 330 326 324 322
350 348 348 348 348 348 348 348 347 348 350 351 350 349 347 348 349 351 351 348 346 346 346 344 345 347 345 344 344 342 342 344 342 344 348 348 351 352 350 351 348 343 340 335 335 342 346 347 348 349 349 350 350 350 350 349 349 349 349 349 349 349 350 350 350 348 348 349 350 349 350 348 345 341 336 335 335 332 328 325 323 321 320 320 320
352 348 347 347 347 347 349 349 348 349 351 352 351 349 347 349 351 352 351 350 349 347 346 345 344 345 345 343 344 344 342 342 341 343 345 344 346 350 350 352 353 353 352 346 340 342 346 347 349 351 351 351 350 350 350 350 350 350 351 351 351 352 351 351 349 348 349 350 347 342 340 339 334 329 326 325 324 323 321 320 320 320 321 322 323
353 351 348 346 346 348 350 350 350 350 352 353 352 351 350 352 353 353 353 351 350 349 347 346 344 344 344 342 343 344 341 341 342 340 342 344 344 348 350 351 352 353 355 355 349 346 346 347 349 349 350 350 349 350 349 349 350 350 350 351 352 352 350 349 347 348 349 346 340 334 332 330 327 323 321 321 321 320 320 320 321 322 326 329 330
355 354 350 347 347 349 351 352 352 352 354 353 352 353 353 354 354 354 354 351 350 351 349 347 345 345 344 341 341 343 342 344 344 342 342 343 344 346 347 348 351 352 354 355 353 352 351 351 351 347 347 348 348 350 347 343 345 347 349 350 350 348 346 346 346 347 346 341 335 332 332 331 327 324 322 323 322 323 323 325 328 332 336 338 339
356 356 352 350 350 351 352 354 355 355 355 353 353 354 353 354 356 354 353 353 352 352 349 347 345 344 343 341 339 340 343 343 340 340 343 344 344 344 345 347 350 353 353 350 350 354 353 353 354 350 348 348 351 351 343 337 339 342 345 345 345 344 344 345 345 344 343 340 336 335 337 337 335 333 331 332 331 333 335 337 339 341 342 344 346
355 356 352 350 351 352 352 353 354 355 354 354 354 355 354 355 357 355 354 352 351 351 349 346 344 342 340 341 342 340 341 344 342 341 343 345 344 342 345 348 349 350 350 347 348 351 351 353 354 354 354 353 354 351 338 335 337 339 341 341 342 343 343 344 344 343 342 341 340 340 341 342 342 341 340 339 339 341 343 343 343 344 346 347 349
355 357 354 351 351 351 350 351 353 354 353 353 354 355 356 357 356 356 355 351 349 349 347 344 340 339 340 341 343 342 342 345 344 342 342 344 345 343 345 347 347 349 347 346 347 346 349 353 351 351 356 355 357 352 337 336 339 340 342 343 344 345 346 347 347 346 345 343 343 343 344 345 346 346 344 343 342 342 342 343 345 346 348 350 350
355 356 354 353 351 350 351 352 354 355 354 353 353 354 356 356 355 355 354 352 351 348 345 343 340 340 343 341 340 343 345 346 344 340 340 344 346 343 343 345 344 346 347 347 347 345 345 349 347 349 355 356 359 355 341 339 344 345 347 348 349 350 350 351 350 351 350 349 348 346 346 347 347 348 348 347 346 345 345 346 348 349 350 351 351
355 355 355 355 353 351 352 353 353 355 355 354 353 355 357 356 355 355 354 353 352 346 342 346 346 343 343 345 345 343 344 344 343 342 342 342 344 343 343 345 343 343 347 348 347 344 341 343 347 351 352 352 357 357 346 344 346 346 348 349 350 351 352 352 352 352 352 352 352 351 350 350 349 349 349 350 349 349 349 350 350 350 351 351 351
354 354 356 356 353 351 352 353 351 350 351 352 352 354 355 355 355 355 355 353 349 345 346 349 349 343 345 356 354 350 354 350 343 343 343 342 341 343 344 343 343 345 346 346 343 341 339 342 347 351 351 350 355 357 350 349 350 348 349 349 348 349 350 351 351 351 351 352 352 352 352 352 352 352 352 352 351 351 351 351 351 351 351 351 351
354 355 357 355 354 352 351 353 351 347 349 350 352 353 353 355 356 356 355 354 349 345 348 350 349 348 357 363 352 354 365 353 342 342 339 341 341 341 343 342 344 345 343 344 343 339 339 342 346 350 350 349 351 351 349 352 355 355 357 353 348 348 348 350 350 351 351 351 351 352 352 352 353 353 353 354 353 353 353 353 353 353 352 353 353
354 354 356 355 355 355 352 350 348 347 349 352 354 354 353 354 357 356 355 355 354 349 347 349 348 348 355 362 360 369 369 347 346 353 342 340 342 339 342 342 344 344 342 345 343 342 342 342 344 347 345 345 348 348 348 353 357 357 357 354 349 348 348 349 350 351 352 352 353 353 353 353 353 353 353 353 354 354 354 354 354 354 353 353 353
354 354 354 353 355 357 354 349 348 351 353 353 354 355 353 354 355 356 356 357 357 353 348 347 348 346 347 352 358 366 364 352 360 365 348 339 339 340 342 341 342 342 341 344 342 343 344 342 344 344 342 345 347 347 348 351 354 355 355 354 351 349 348 349 349 351 352 353 354 353 354 354 353 353 354 354 354 353 353 353 353 353 353 353 353
355 354 354 354 355 354 353 351 352 354 355 354 355 355 354 355 356 357 357 357 356 355 351 347 347 349 349 348 346 348 352 355 364 370 370 364 345 337 341 341 341 341 339 342 342 342 343 342 343 342 342 346 347 347 346 348 351 353 355 356 354 351 349 350 350 351 353 353 354 354 354 354 353 353 354 354 354 353 352 351 351 351 352 352 352
355 356 356 357 357 353 353 355 354 354 355 355 355 355 355 357 357 356 357 357 355 355 354 351 348 349 351 351 349 347 346 349 353 360 376 384 364 344 343 341 341 343 341 342 342 341 342 342 342 341 342 344 346 345 343 344 347 349 351 353 353 352 350 350 351 351 353 353 354 353 353 353 353 353 352 352 353 353 353 350 348 348 349 350 350
355 356 357 358 358 356 355 356 355 354 354 354 355 357 358 359 358 356 358 358 355 354 354 353 352 351 352 352 351 349 346 347 347 346 357 371 367 354 346 343 342 342 342 343 341 340 341 341 341 341 342 342 343 343 343 344 345 347 348 349 350 351 351 350 350 350 351 351 351 352 353 352 351 350 348 350 352 353 353 351 346 344 345 346 348
354 356 359 358 358 357 356 357 357 355 354 354 355 358 359 360 359 358 360 360 356 354 354 353 352 351 351 351 352 351 349 349 348 346 349 355 359 353 342 345 349 344 342 343 341 341 341 341 343 343 343 343 343 344 344 346 346 346 348 348 350 351 352 351 349 351 351 350 349 347 348 348 346 345 344 347 351 353 353 352 348 344 342 343 345
353 356 359 358 357 357 356 356 356 355 355 354 355 356 356 358 359 358 359 360 358 357 356 354 352 352 350 347 349 349 348 349 347 345 347 352 361 358 342 342 347 343 343 343 339 341 343 343 344 344 344 345 345 346 345 345 344 343 345 350 353 352 352 352 352 354 352 350 350 346 344 344 342 342 343 346 351 353 353 353 351 348 345 343 343
354 356 357 357 357 356 355 355 355 354 354 354 355 356 356 358 358 358 358 359 359 358 357 356 353 352 352 349 348 346 345 347 344 344 347 347 356 357 344 343 348 344 343 343 341 342 343 344 344 343 345 344 345 346 346 345 343 341 343 348 351 351 350 351 353 353 351 351 351 347 346 346 343 341 342 345 350 352 352 352 352 352 351 348 347
354 355 355 356 357 356 355 355 355 355 355 355 356 356 357 358 359 359 358 358 360 359 357 358 354 353 353 352 350 347 346 347 344 344 348 345 347 353 350 350 351 346 344 344 345 344 343 344 345 344 344 344 346 347 345 345 345 344 345 346 347 349 348 349 352 353 351 352 351 347 347 349 344 339 341 344 348 351 352 352 352 351 351 351 350
354 354 354 354 355 356 356 356 356 357 358 357 357 357 357 359 358 358 359 359 359 359 358 358 355 353 354 352 351 350 348 348 345 344 347 348 349 353 355 357 353 347 347 346 345 346 345 344 343 344 345 345 347 348 346 344 345 345 346 347 348 348 346 347 351 353 353 354 352 347 349 351 344 337 337 340 344 348 350 351 352 350 349 350 350
354 354 354 353 354 356 356 357 358 359 359 358 358 357 356 357 358 358 359 359 358 358 358 357 355 354 353 349 349 350 348 348 348 347 349 350 350 349 355 365 367 358 352 350 347 346 345 343 343 344 346 346 347 347 346 345 345 346 346 347 350 350 348 346 349 353 354 352 350 347 349 351 345 336 335 336 338 341 345 347 347 347 348 349 349
355 355 356 354 354 357 356 356 358 359 359 359 358 357 354 355 358 359 358 357 357 357 356 357 356 353 352 348 348 349 348 348 349 350 351 351 352 351 350 359 370 370 363 359 356 351 347 345 344 346 347 347 347 346 346 346 348 348 347 348 351 350 349 349 349 351 350 348 347 347 350 351 345 338 335 335 335 336 338 341 343 345 347 348 348
357 357 357 356 356 358 356 355 357 359 359 359 358 358 358 357 358 360 358 356 359 360 358 358 356 354 353 351 350 349 347 347 348 348 348 349 351 352 350 350 360 371 371 368 364 357 353 351 348 347 348 348 348 346 345 348 349 347 345 347 350 349 350 351 349 348 347 347 349 350 352 351 346 342 338 335 335 336 336 339 341 343 344 344 344
357 356 356 357 357 357 355 354 356 357 359 358 357 358 359 359 358 359 358 357 360 360 359 358 357 355 354 353 353 351 349 349 349 347 347 350 350 351 352 351 352 360 366 368 366 359 354 355 351 349 349 347 347 346 345 346 346 344 345 347 349 349 350 351 349 348 349 349 349 350 352 350 346 344 341 336 335 335 335 337 338 339 340 340 340
356 356 356 356 357 357 355 355 356 357 358 358 357 357 358 358 358 359 358 357 359 359 359 357 355 354 355 355 355 353 352 352 351 349 348 350 350 349 349 349 349 353 354 359 364 361 355 356 355 351 349 347 346 345 346 346 345 345 347 348 349 350 350 349 349 349 349 347 345 348 349 348 346 345 343 339 338 337 336 336 336 336 336 337 338
356 358 358 357 357 356 356 356 356 357 358 358 358 357 358 358 357 357 358 358 358 359 358 357 355 355 357 358 357 355 355 355 354 353 352 348 348 348 349 347 348 351 351 353 360 362 357 357 357 354 352 351 349 349 348 348 348 349 349 349 351 351 350 350 350 347 345 344 344 346 347 346 346 345 343 342 342 341 341 341 340 338 336 335 336
356 359 358 357 357 356 354 353 354 355 356 356 356 357 358 358 357 358 360 362 362 361 359 359 358 358 358 359 359 358 358 358 356 355 353 350 348 349 349 349 348 349 349 351 356 360 358 357 358 356 355 354 351 351 351 351 351 351 351 351 352 352 350 348 348 346 345 345 346 346 345 344 345 345 344 343 343 344 344 344 345 345 343 339 336
356 357 357 356 357 356 353 352 352 354 356 356 356 357 358 359 359 358 359 361 363 362 360 359 360 360 359 359 360 360 358 357 357 355 354 351 349 348 348 349 350 350 350 351 354 357 358 357 358 358 357 355 354 354 354 354 353 351 352 352 352 350 349 349 350 348 347 347 347 344 342 343 345 345 344 343 343 345 345 345 346 347 348 346 342
355 356 356 355 356 357 355 354 354 356 357 357 357 358 359 360 360 359 357 358 360 360 359 359 360 360 359 358 358 359 357 355 355 355 354 352 351 351 350 350 352 352 351 352 352 355 357 358 358 359 359 358 357 357 356 355 354 353 352 351 351 351 351 352 352 350 348 348 347 344 344 345 345 345 345 345 345 346 346 345 346 346 348 349 348
354 356 355 354 356 357 357 357 358 358 359 360 359 358 359 360 360 360 360 359 358 360 360 360 360 360 359 359 359 359 357 355 354 354 354 354 352 352 353 354 354 354 354 355 355 356 358 358 359 359 360 360 359 358 357 356 355 354 354 354 353 353 354 353 352 351 350 350 347 345 345 346 346 346 346 346 347 347 347 347 347 347 348 349 350
355 355 355 355 356 358 357 358 360 361 360 361 360 358 358 360 360 359 359 359 359 360 360 360 360 360 360 360 360 359 358 356 355 355 354 354 355 356 356 355 355 356 357 357 358 357 358 360 361 360 359 360 359 358 356 355 355 355 355 355 353 351 353 353 351 350 351 350 348 346 347 348 347 346 346 347 349 350 351 351 352 351 351 350 350
355 354 355 355 356 358 358 358 361 362 360 359 360 359 359 359 359 359 359 359 359 359 359 359 359 359 359 359 358 358 357 356 355 355 355 355 357 358 357 356 357 358 358 357 358 358 358 359 359 358 357 357 357 356 354 354 354 354 355 355 352 349 350 351 349 349 349 349 348 348 350 350 348 348 348 351 353 353 354 356 356 355 354 352 351
354 354 354 354 356 358 359 357 359 361 360 359 359 359 359 358 358 359 358 358 359 358 358 357 357 356 356 356 356 356 356 356 356 356 355 355 357 357 357 357 358 359 359 359 358 358 359 359 358 357 356 356 355 354 354 353 351 351 352 354 351 348 349 349 348 349 349 349 351 353 353 352 352 352 354 355 355 355 357 358 358 356 353 351 351
355 354 353 353 355 357 358 357 358 359 360 360 360 360 360 358 359 359 357 357 358 357 356 355 355 356 355 353 353 355 355 355 355 356 357 356 357 358 358 357 358 359 359 359 359 359 360 360 359 358 356 355 354 353 352 351 349 347 347 350 351 351 350 350 349 350 352 353 355 356 355 355 356 355 356 357 357 358 360 360 358 356 355 353 353
352 353 352 352 353 355 356 357 358 358 358 360 360 361 361 359 359 359 358 357 358 357 355 354 355 355 354 352 352 353 353 353 355 356 356 357 357 358 357 356 356 358 359 360 360 360 360 360 359 357 356 355 352 350 350 349 347 346 349 353 355 355 354 354 354 355 356 357 358 357 357 357 357 357 358 359 360 361 360 360 358 357 356 356 356
349 349 350 350 353 354 355 357 357 356 357 358 358 360 361 360 360 361 360 358 357 355 354 353 354 354 353 352 351 351 351 351 351 352 354 357 357 354 352 349 349 352 354 356 357 356 357 358 357 356 354 353 351 350 351 350 349 352 355 357 358 358 358 359 359 359 358 359 359 358 357 357 358 359 359 359 360 361 360 358 357 357 358 358 358
346 346 346 348 350 351 353 355 356 354 354 355 356 357 358 359 359 359 359 358 355 353 353 354 354 354 353 351 349 349 351 351 351 352 353 354 354 351 349 347 347 348 349 351 353 354 355 356 356 354 353 352 353 353 353 353 354 356 357 358 360 361 361 361 361 360 359 358 357 357 357 357 357 358 359 358 358 359 359 358 357 357 358 358 357
346 346 346 347 348 348 349 353 355 354 352 353 354 354 354 355 357 357 356 357 355 353 352 353 353 353 351 351 350 350 350 351 352 354 355 354 353 353 352 352 352 353 352 351 351 350 351 354 355 355 355 355 356 356 356 357 358 357 357 358 360 360 360 361 361 360 358 356 355 357 358 356 355 356 357 357 357 357 357 356 357 357 357 357 356
349 349 349 349 350 349 348 350 352 352 352 352 352 352 352 352 354 356 356 354 353 352 351 350 350 350 350 352 353 353 351 350 352 355 358 358 357 355 355 357 359 360 359 356 354 353 351 351 352 355 356 356 357 358 358 358 357 356 356 357 358 359 359 359 359 358 357 356 356 357 357 355 355 356 356 356 355 355 356 357 357 356 356 355 355
355 353 351 351 352 352 351 350 351 351 351 352 352 352 353 353 355 356 355 353 352 350 349 349 349 350 352 353 354 354 353 353 355 357 358 358 358 358 359 360 361 360 359 357 357 359 357 354 353 355 355 355 357 357 357 357 356 356 357 357 358 358 358 358 358 357 356 356 356 357 357 357 357 357 356 356 356 356 358 358 356 355 356 355 355
355 352 350 350 350 352 351 350 349 350 351 352 352 352 353 353 353 353 351 351 351 349 350 353 352 351 353 355 355 356 356 356 357 358 358 358 358 358 358 359 359 359 358 356 356 358 358 357 356 356 356 356 356 356 356 356 356 356 357 357 357 357 357 357 357 356 356 355 355 356 357 357 357 357 356 355 355 356 357 356 355 356 357 356 355
353 351 352 352 351 351 351 349 349 350 350 351 352 351 351 350 350 350 350 351 353 355 355 355 354 352 353 355 355 355 355 355 355 355 356 356 356 356 356 357 358 358 358 358 358 357 357 357 357 356 356 355 355 355 356 355 356 357 356 355 354 355 356 356 356 356 356 355 355 356 355 355 355 356 355 355 354 355 355 355 356 357 356 356 356
351 353 354 352 351 352 351 350 349 349 348 350 351 350 350 350 349 350 353 356 357 358 357 355 353 352 353 354 354 353 352 352 353 353 353 353 353 353 354 356 356 357 357 357 357 357 356 356 356 355 354 354 354 355 355 355 355 355 354 353 354 354 354 355 356 356 354 353 354 354 353 354 354 354 354 354 353 354 354 354 355 356 355 356 357
352 354 355 351 347 347 347 346 346 346 345 346 348 349 350 349 349 350 354 357 357 356 355 354 353 353 352 351 352 351 350 350 350 351 351 351 351 350 350 352 354 355 355 354 353 352 352 352 352 352 352 353 354 354 354 355 354 353 352 352 353 353 353 353 354 354 353 353 353 352 351 352 352 352 353 353 353 353 354 355 355 356 355 355 357
350 352 353 347 343 342 341 340 340 341 341 341 343 346 347 347 349 350 353 355 353 352 353 351 351 352 350 349 347 347 346 345 344 344 345 345 344 344 347 350 353 353 352 350 347 348 348 350 352 352 352 353 353 354 354 353 353 352 351 350 350 350 351 352 351 352 352 352 351 350 350 351 351 352 353 353 353 354 354 354 355 354 354 355 357
Wind_Speed
13 13 14 15 16 16 15 14 13 12 10 9 9 7 5 4 3 3 3 2 4 5 6 6 7 8 7 7 7 7 7 6 6 5 3 2 4 4 2 2 3 2 2 1 1 1 1 1 2 2 2 2 2 2 2 2 2 2 2 3 3 2 3 3 3 4 4 5 6 7 8 8 7 6 6 6 5 5 6 7 9 10 10 11 11
13 12 11 12 14 14 12 12 11 11 9 8 7 6 5 5 4 4 4 3 4 6 6 6 7 8 7 8 7 7 7 5 7 7 4 2 2 5 5 3 3 3 3 3 2 1 1 0 0 1 0 0 1 1 1 1 1 2 2 2 2 2 2 3 3 4 4 5 6 7 8 9 8 6 5 5 5 6 7 8 9 10 10 10 11
11 11 10 9 12 11 9 9 10 9 9 7 5 4 5 5 3 4 3 3 4 5 6 6 7 7 7 8 8 8 7 7 8 9 7 4 1 4 7 7 5 4 5 4 4 3 3 3 2 3 3 3 3 2 2 2 1 1 1 1 1 2 2 3 3 4 5 6 6 8 9 8 7 5 5 6 7 8 9 8 8 8 9 9 11
10 9 9 9 11 10 7 7 8 8 8 6 4 3 4 5 4 4 2 2 3 2 4 5 6 6 7 7 8 9 6 7 8 8 7 4 3 1 6 9 8 7 6 5 5 5 4 5 5 5 5 5 4 4 3 3 2 2 2 2 2 2 2 3 4 5 5 6 7 8 8 7 7 7 7 7 8 8 8 7 6 7 7 8 10
8 8 9 11 12 11 8 8 8 8 8 6 5 4 3 4 4 3 2 3 4 2 3 4 4 4 6 6 7 8 6 7 7 6 7 5 4 1 4 7 9 9 8 6 6 6 6 6 6 6 6 5 5 4 3 3 2 2 1 1 2 2 3 4 5 5 6 6 7 8 7 7 7 7 7 7 7 6 6 6 5 6 7 8 9
8 7 9 11 12 11 10 9 8 7 6 5 3 2 1 1 2 2 3 4 4 3 3 4 5 2 4 6 7 7 8 8 8 6 7 7 5 2 2 4 5 6 8 8 6 6 6 6 6 6 6 5 4 4 3 3 2 2 3 3 3 3 4 5 5 6 6 6 7 7 6 6 7 7 6 6 6 6 6 6 6 7 7 8 9
6 7 9 10 10 10 10 8 8 6 4 4 2 1 1 1 1 2 3 3 2 1 0 3 5 2 3 4 5 6 6 6 8 7 6 7 6 5 2 2 3 3 4 6 7 7 6 6 6 5 5 5 5 5 4 4 4 4 4 5 4 4 5 5 5 6 6 7 7 7 6 7 7 7 7 6 6 6 6 7 7 7 8 9 9
7 8 11 13 11 11 12 9 8 7 5 4 4 5 3 1 1 1 1 1 2 1 1 3 5 5 4 5 6 6 7 6 8 9 8 7 6 7 5 3 1 1 1 1 4 5 6 7 6 6 5 6 6 6 6 6 6 6 5 5 4 4 4 5 5 6 6 6 6 6 6 7 7 7 7 6 6 6 6 6 7 7 8 9 9
8 7 11 15 15 14 13 11 10 8 6 5 6 5 3 2 3 1 2 0 2 4 2 4 5 6 7 8 5 5 6 5 8 11 9 8 8 9 7 4 4 5 4 2 1 1 3 4 6 7 8 8 9 8 9 7 6 5 4 3 3 4 4 5 5 5 5 5 5 5 6 6 7 7 7 6 6 6 6 6 6 7 8 9 10
8 8 9 12 12 12 11 9 8 7 7 7 6 5 4 4 4 1 3 2 3 5 3 4 5 7 7 7 6 5 5 6 8 9 7 9 10 9 7 4 4 5 6 3 2 0 2 2 1 4 8 10 11 11 12 9 6 5 4 4 4 4 4 4 5 4 4 4 5 5 6 6 6 7 6 6 6 6 6 6 6 8 9 10 12
8 8 10 11 10 10 10 8 7 6 7 8 5 4 4 5 4 2 3 3 3 4 4 4 2 6 9 6 6 8 7 6 8 10 10 10 8 8 8 5 4 6 5 4 3 3 2 2 1 1 3 8 10 12 12 9 7 6 5 5 4 4 5 5 5 5 5 5 5 6 6 7 7 7 7 6 6 5 5 5 6 8 9 11 13
7 6 8 10 10 10 10 9 8 6 7 8 6 5 4 4 3 3 3 2 2 4 4 2 5 9 10 7 5 6 7 7 7 10 12 9 8 10 10 6 4 6 5 6 6 4 4 1 2 2 1 2 5 9 9 7 6 6 5 5 5 5 5 5 6 6 7 7 6 6 6 6 7 7 7 6 5 5 5 5 7 8 10 11 13
7 6 7 9 10 10 10 9 7 6 7 8 7 6 5 3 2 3 3 4 7 5 0 5 6 6 7 7 7 6 7 8 8 12 11 9 9 8 9 8 5 6 5 3 4 3 5 5 4 4 1 1 1 4 7 6 6 7 6 5 5 4 4 4 5 6 7 7 6 6 5 6 6 6 6 6 6 5 5 6 7 9 10 12 13
8 8 5 7 8 8 9 8 7 5 6 6 6 5 3 3 3 5 5 9 11 4 4 3 2 6 8 6 7 7 7 10 11 12 12 11 11 8 10 11 8 7 5 3 3 5 5 6 5 3 3 2 2 1 6 5 4 5 4 4 4 3 4 4 5 5 6 6 6 6 6 6 6 6 6 5 5 5 6 6 7 9 10 12 13
9 9 5 6 7 8 8 7 6 4 4 5 5 4 2 3 5 6 8 10 8 2 2 3 3 5 7 3 4 6 6 9 10 12 13 12 11 11 12 11 9 7 6 6 6 6 5 4 5 4 4 5 3 1 4 5 5 4 3 3 2 3 4 4 6 6 7 7 7 7 7 7 7 7 7 7 7 7 7 8 8 9 10 12 13
9 8 5 6 7 8 8 6 5 5 4 5 5 4 3 4 6 5 8 11 7 3 2 5 8 5 1 2 2 3 1 4 5 6 8 11 10 12 13 9 9 10 9 9 6 4 5 5 7 6 4 4 5 4 1 4 6 7 6 6 5 4 4 5 6 7 8 9 9 9 9 9 9 9 9 9 9 10 9 10 10 10 11 12 13
8 8 6 6 6 6 7 6 6 7 6 5 4 3 3 5 7 5 5 9 11 6 5 5 8 6 4 2 1 1 1 2 5 2 2 8 9 11 15 11 11 12 9 9 7 5 5 6 8 6 3 3 5 5 1 3 5 7 8 9 8 7 6 6 7 8 9 10 11 11 10 10 10 11 11 11 11 11 11 11 12 12 12 12 13
8 9 8 6 6 6 7 7 7 7 6 5 3 2 3 4 5 5 5 6 10 10 6 5 6 6 6 5 3 3 2 2 4 3 6 5 5 10 17 14 12 12 9 9 8 7 6 5 7 4 3 3 3 3 2 2 4 6 8 9 9 9 9 8 8 9 10 12 12 13 12 12 12 12 13 13 13 13 13 13 13 13 13 13 14
8 9 9 6 6 7 7 7 6 5 4 3 2 2 3 3 2 2 4 5 8 11 8 4 5 6 7 7 6 5 4 5 3 1 3 6 3 6 13 13 13 12 11 11 9 8 8 6 6 4 2 3 1 1 3 3 4 6 8 10 10 11 11 10 9 10 11 13 14 15 15 15 15 14 15 15 15 15 14 14 13 13 13 13 14
8 9 10 8 6 6 6 6 6 5 4 3 2 3 4 3 1 2 4 5 6 7 9 7 5 5 8 8 6 4 5 5 6 5 2 2 4 3 3 10 13 12 12 10 7 8 8 10 9 5 2 3 3 2 4 4 5 7 9 10 10 11 12 12 12 12 13 15 16 16 16 16 16 16 16 16 16 16 15 14 13 13 12 13 13
9 9 9 9 8 7 7 6 6 8 7 4 3 5 5 4 2 2 4 4 4 4 7 8 6 5 4 6 6 4 5 4 2 4 4 2 2 3 4 5 6 8 8 5 7 9 9 12 12 6 3 3 2 3 4 6 8 8 10 11 11 12 12 13 13 13 14 16 16 17 17 17 18 17 17 16 16 15 15 15 14 13 13 13 13
10 9 8 9 10 8 8 7 6 8 7 5 5 5 4 4 3 2 3 3 3 4 4 5 5 4 2 3 4 4 4 3 1 4 7 6 2 2 7 8 4 4 4 0 5 6 6 9 8 6 5 3 1 2 4 6 9 10 11 13 12 12 13 14 13 12 14 16 16 17 18 18 18 17 17 16 15 15 15 16 15 15 14 14 14
11 11 10 9 9 8 8 8 7 7 6 6 7 6 5 5 4 3 3 2 3 2 2 2 1 3 2 1 2 1 2 2 3 5 6 5 2 2 5 6 6 6 5 2 6 7 1 6 3 3 4 2 1 5 7 7 10 11 12 12 10 11 14 15 15 13 14 17 17 18 18 19 19 17 16 15 14 14 15 16 16 17 16 16 16
13 12 11 11 10 9 9 9 8 7 6 6 6 5 4 6 6 4 4 3 1 2 2 2 2 4 4 4 2 2 2 1 3 5 5 3 1 0 2 2 3 4 5 2 6 10 5 1 4 4 3 4 5 7 10 11 13 13 12 11 10 13 16 17 17 15 16 17 17 18 18 19 19 17 15 15 14 14 15 16 17 18 18 18 18
14 13 12 12 12 10 9 9 8 8 8 7 6 4 4 6 6 3 4 5 2 2 1 1 2 3 4 6 6 2 0 1 2 3 5 4 1 3 4 3 3 5 5 2 6 10 8 4 4 4 6 7 6 8 11 13 14 14 13 13 12 14 17 18 17 16 17 18 18 19 19 18 19 17 16 14 14 15 15 16 17 18 19 19 19
13 13 12 13 13 11 9 9 8 8 8 8 6 5 4 5 6 4 4 4 3 2 1 1 1 1 2 3 5 6 5 2 0 1 3 4 3 5 4 6 6 5 5 5 6 7 6 5 3 5 8 8 7 10 11 12 13 14 15 16 14 12 15 19 19 17 18 18 20 20 19 18 19 18 17 15 15 15 16 17 17 18 19 19 20
12 11 11 12 12 12 10 10 9 9 8 8 7 6 6 5 5 4 3 3 3 3 2 1 1 1 1 1 2 4 5 4 3 3 3 4 4 3 1 1 4 6 4 4 6 7 7 7 8 8 9 8 7 11 13 14 14 13 14 16 13 11 16 20 19 19 20 21 22 22 20 18 18 19 18 16 15 15 16 17 17 18 19 19 19
12 11 11 11 11 11 11 10 10 9 8 8 7 6 6 6 4 3 3 3 3 3 2 2 2 2 2 2 2 3 4 4 3 3 3 2 2 2 0 2 1 2 4 4 5 5 8 10 8 9 9 7 7 12 15 16 12 9 11 13 11 12 17 20 20 21 22 22 22 21 20 18 17 19 19 17 16 15 15 16 17 18 18 19 19
12 12 12 12 11 11 11 11 10 9 8 8 8 7 7 6 5 5 5 4 3 3 2 3 3 3 3 3 2 3 3 2 2 1 1 1 2 2 3 2 3 2 2 2 4 7 10 13 9 6 8 7 10 14 16 14 10 11 14 12 12 15 18 20 21 21 21 20 19 19 19 17 17 19 20 18 17 16 15 15 16 18 19 19 20
11 11 12 12 12 11 10 11 11 10 9 8 8 8 7 7 6 6 5 4 3 3 3 4 4 4 4 4 3 3 3 3 2 2 2 2 2 3 6 4 2 2 2 1 3 7 9 11 12 10 9 11 14 16 14 12 13 16 15 13 13 16 17 20 21 22 21 19 17 17 17 15 16 19 20 20 18 17 16 16 17 18 20 20 20
10 11 12 12 12 12 11 10 10 10 9 9 8 8 8 7 6 6 6 6 5 4 4 5 5 5 5 4 4 4 3 4 4 3 3 3 3 4 6 6 4 5 5 4 3 5 8 11 13 13 14 14 15 15 15 14 15 16 16 15 16 17 18 21 23 23 21 18 17 16 14 14 16 17 18 20 20 18 18 18 19 19 20 20 20
11 11 12 12 12 12 12 11 10 10 10 9 9 9 8 7 6 6 6 7 7 6 6 6 5 5 4 3 5 5 4 4 5 6 6 6 7 7 6 7 6 6 7 8 6 7 10 11 13 14 14 14 15 15 15 14 14 15 16 16 16 17 20 23 23 21 19 19 19 15 14 16 16 16 18 19 20 19 19 20 20 20 21 21 20
12 12 12 11 12 12 12 11 11 11 10 10 9 9 9 8 7 7 5 6 7 7 7 7 6 6 5 5 5 6 6 6 6 7 8 8 9 10 10 10 9 9 11 12 9 8 10 11 12 14 14 14 15 14 14 14 14 14 16 15 16 17 20 22 20 18 20 20 16 15 19 21 19 18 19 20 20 20 20 22 22 21 21 21 21
12 13 12 12 11 11 11 11 10 10 10 10 9 9 9 8 8 8 7 7 8 7 7 7 7 7 6 6 7 7 7 8 8 8 8 8 9 9 9 8 7 7 8 8 7 7 9 10 12 13 14 14 15 14 14 15 15 15 16 16 15 16 18 19 19 19 21 19 17 20 24 24 21 20 22 24 23 20 22 25 24 23 22 21 22
12 12 12 12 12 12 11 11 10 9 10 11 10 9 9 9 9 8 8 8 9 8 8 8 8 8 8 8 8 7 8 9 9 8 7 7 8 9 8 8 8 8 7 8 8 7 8 11 12 13 14 14 15 16 16 15 15 16 16 16 15 16 17 18 18 18 19 20 21 22 23 23 23 24 26 28 25 22 25 28 27 25 23 22 22
11 11 12 12 12 13 11 10 11 10 10 11 10 9 9 9 9 9 8 8 8 8 9 9 9 9 9 9 9 8 8 9 8 7 8 8 8 8 8 8 8 8 9 9 9 8 10 12 12 13 14 15 17 16 15 15 15 14 15 15 15 16 16 15 15 17 18 19 20 21 22 24 25 25 26 26 24 24 28 30 29 27 26 24 23
12 12 12 12 12 13 12 11 11 11 10 10 10 10 9 8 8 8 8 8 9 9 9 9 9 10 10 10 9 8 8 9 8 7 8 8 8 8 8 8 7 7 8 9 9 9 11 12 13 14 16 17 17 16 14 15 15 14 14 15 15 16 16 14 14 16 17 17 18 21 23 23 23 24 25 25 25 27 29 30 28 27 27 27 25
13 13 11 12 13 13 12 11 11 12 12 11 10 10 9 8 8 8 8 9 9 10 10 10 10 10 11 11 11 9 8 9 9 8 8 7 7 7 8 8 8 7 7 9 9 9 11 12 13 15 16 16 14 13 13 14 14 15 16 16 16 17 16 13 14 16 16 17 20 22 22 21 21 23 25 26 27 28 29 29 26 26 27 28 27
12 14 13 12 13 14 13 12 11 11 12 11 10 11 9 9 9 9 10 10 9 10 11 11 11 11 12 12 11 11 10 10 9 9 9 8 8 8 8 8 8 7 8 9 10 10 11 11 12 13 14 14 14 14 14 13 13 15 17 18 17 16 13 12 15 18 19 21 22 21 21 21 23 24 27 28 29 29 29 26 25 25 25 26 26
12 14 14 13 12 13 13 12 10 11 12 12 12 12 11 10 10 11 11 10 9 10 12 12 10 11 13 13 11 10 10 9 9 9 9 8 7 6 6 7 6 6 8 9 10 10 11 11 12 13 14 16 17 17 15 12 12 15 16 16 15 13 15 16 19 21 22 23 21 20 21 23 26 28 29 30 30 28 26 25 24 24 24 24 25
14 15 16 15 13 13 13 13 13 11 12 13 13 12 13 13 12 9 9 10 10 10 12 12 10 10 13 12 10 8 7 7 8 10 10 9 8 8 8 8 7 7 8 9 10 11 11 12 12 13 15 16 16 15 14 13 15 16 17 16 16 18 21 22 23 22 21 20 20 22 24 26 29 29 29 29 28 26 25 25 25 25 26 26 26
16 17 18 16 15 15 14 14 14 11 10 12 13 13 13 13 12 9 8 9 10 10 12 12 11 11 11 11 11 11 9 9 10 11 12 13 13 13 13 12 12 12 12 12 11 12 12 12 12 13 14 14 15 16 16 17 17 18 19 20 20 22 22 21 21 22 20 19 21 25 27 28 27 27 28 27 26 25 24 24 25 26 26 26 25
16 15 15 15 16 16 15 15 14 11 11 12 12 14 14 14 13 10 8 8 9 9 10 11 11 11 11 11 12 10 8 10 11 11 12 15 14 13 13 12 12 13 15 15 14 14 13 12 13 13 13 15 15 16 16 16 17 18 19 19 19 20 19 17 18 21 21 22 25 27 28 28 26 25 27 26 24 24 23 23 25 26 25 25 26
13 11 11 12 12 12 12 14 13 12 12 13 13 14 15 15 14 12 9 7 8 9 9 9 10 11 12 12 10 6 5 8 9 8 10 12 12 12 11 11 12 13 14 16 17 18 17 15 14 14 14 15 15 15 15 15 17 18 18 18 17 18 18 17 17 21 25 28 28 26 26 27 25 24 24 24 24 25 24 23 24 25 25 26 27
11 11 12 12 11 11 10 8 12 14 13 13 14 15 15 15 15 15 12 9 8 10 11 11 11 10 10 9 7 5 4 6 6 5 6 7 8 10 11 11 12 12 13 15 16 18 19 19 18 17 16 15 15 15 14 13 15 17 18 18 17 16 17 19 20 25 28 27 25 23 22 24 24 22 22 23 23 24 23 22 23 24 25 25 25
8 8 8 8 7 8 7 4 11 15 13 12 13 13 14 14 14 14 13 10 9 11 12 11 8 5 4 5 6 5 4 4 4 4 4 4 5 8 10 10 10 12 14 15 14 14 16 18 19 19 19 18 16 14 12 12 15 17 18 17 17 17 19 20 20 23 22 20 20 21 20 20 21 21 22 23 24 23 22 22 24 24 23 23 24
5 4 6 8 6 4 1 5 9 11 10 10 10 10 11 12 12 12 11 9 9 9 7 4 3 3 3 4 5 5 4 3 4 4 4 5 5 7 10 10 10 12 13 12 10 9 9 9 10 13 14 13 12 11 13 15 17 16 16 16 17 18 18 18 18 18 16 17 20 19 17 19 21 21 23 27 27 25 25 26 24 22 20 22 24
8 6 7 8 8 4 1 4 6 7 7 7 7 8 8 8 8 8 6 5 5 5 4 4 3 2 2 4 5 4 3 4 4 5 5 5 4 6 10 10 10 11 11 11 11 11 10 9 8 9 9 10 11 12 15 16 16 17 17 18 18 16 16 16 16 14 15 18 19 17 17 20 21 22 26 30 29 28 29 26 21 19 21 23 24
9 13 11 6 6 7 7 8 8 7 6 5 5 6 6 6 6 4 1 2 2 2 4 5 3 3 3 4 4 2 4 6 6 7 7 7 7 8 9 9 10 11 11 11 11 11 12 13 13 14 15 15 14 14 15 14 14 16 16 15 14 13 13 12 11 12 17 18 16 17 20 21 22 24 27 30 29 26 25 22 20 20 22 24 23
8 13 14 9 10 12 12 11 10 9 7 5 4 5 4 4 4 3 1 2 0 3 4 4 2 2 2 2 2 2 4 7 8 10 10 10 9 9 9 9 10 10 9 11 13 15 17 18 17 16 16 15 14 13 12 12 12 14 14 12 12 12 12 11 11 14 16 14 14 19 22 22 24 25 25 28 27 22 19 19 20 23 25 24 22
10 11 13 11 13 15 14 13 12 11 10 8 5 3 2 2 2 3 2 1 3 4 4 4 2 0 2 3 3 4 5 7 8 9 9 9 8 8 7 7 8 9 10 14 16 17 17 17 16 15 14 13 12 11 10 11 11 13 14 14 14 14 12 12 13 13 10 10 15 21 21 20 23 24 23 22 18 16 18 20 23 25 26 23 21
Wind_Direction
139 139 139 147 143 133 130 131 133 134 136 142 152 160 157 148 146 141 141 174 208 200 180 171 153 140 138 130 119 117 120 127 148 169 172 96 67 68 95 127 112 104 110 121 149 205 266 267 266 272 274 284 281 286 292 302 309 301 306 308 311 329 334 342 341 344 349 343 337 330 323 317 315 317 316 311 307 307 304 302 303 303 304 302 300
138 139 139 149 145 134 134 142 147 152 147 144 152 154 143 128 131 147 154 193 203 197 190 171 146 142 149 144 137 135 134 140 146 153 172 190 72 56 54 70 85 82 91 87 79 87 43 13 16 52 92 34 29 2 2 346 337 331 336 336 340 355 352 351 346 344 345 338 331 326 322 322 324 325 325 324 320 318 314 310 309 309 309 306 303
134 140 137 142 148 136 127 140 146 146 137 132 143 155 150 131 131 152 172 230 196 193 203 172 143 146 156 147 145 147 147 160 159 155 167 196 239 51 54 58 71 75 76 79 80 81 82 85 81 78 70 62 55 48 47 33 26 21 16 24 24 18 4 352 344 342 338 333 328 324 325 332 340 341 338 333 324 318 314 311 309 306 302 299 298
130 132 125 124 142 134 110 126 136 132 131 139 152 156 147 125 126 130 119 220 170 184 213 173 151 161 161 144 147 154 162 181 167 144 147 187 254 46 58 55 59 69 72 74 82 82 83 79 74 72 65 59 54 47 49 47 48 50 49 46 34 19 357 348 344 339 335 332 328 325 332 343 348 341 333 324 315 312 310 307 305 302 301 302 305
125 116 118 122 132 131 117 123 131 132 137 140 139 147 159 147 147 136 134 197 174 195 222 160 145 169 161 140 142 152 167 175 152 134 147 166 201 175 51 53 59 64 68 70 77 77 76 74 70 67 61 54 47 43 42 40 40 33 26 11 354 348 340 340 340 337 336 334 332 334 341 343 337 329 322 316 314 316 318 322 326 325 324 326 328
128 118 124 130 133 132 121 122 124 128 134 115 98 108 123 170 234 245 249 226 189 212 229 139 133 153 143 139 153 164 166 153 131 137 149 140 159 173 37 43 56 58 62 67 71 74 73 69 65 61 53 42 30 23 14 0 350 333 321 315 315 321 326 330 334 337 341 341 340 344 345 337 332 334 334 334 339 341 342 348 350 347 344 345 346
121 108 112 117 122 118 106 109 110 109 114 91 77 101 86 329 286 272 277 263 206 205 146 123 137 127 84 105 137 154 146 133 124 130 134 123 133 148 117 32 22 23 48 67 66 66 72 69 64 57 40 24 11 0 351 339 328 319 312 313 313 317 323 329 336 341 344 347 349 354 354 348 347 354 357 355 355 356 357 357 354 353 356 357 359
128 126 140 143 145 137 127 128 122 130 139 113 124 142 156 173 87 39 326 252 259 323 125 148 150 151 142 120 113 127 136 153 152 131 125 134 129 129 127 94 107 213 237 100 64 60 69 66 59 53 42 25 15 3 352 342 329 324 319 318 320 328 337 340 346 350 353 356 359 4 2 1 3 6 8 6 5 5 3 359 357 0 6 9 11
137 132 149 153 154 148 140 138 134 143 137 105 105 108 117 92 65 26 8 198 274 305 242 179 156 164 165 150 138 137 133 137 141 124 121 139 134 132 138 121 129 163 183 190 23 44 52 57 59 54 54 44 32 19 6 356 345 338 335 337 347 358 4 2 4 4 7 14 15 15 13 13 14 16 19 20 18 17 12 8 5 9 17 19 19
128 99 107 124 131 126 122 126 131 128 104 91 79 69 84 73 54 12 3 353 304 306 254 175 167 173 155 138 141 139 106 98 125 132 134 142 138 142 160 152 119 142 159 185 247 127 19 347 46 57 57 54 43 28 18 14 13 14 17 21 24 30 34 33 34 37 42 45 42 38 32 28 27 24 26 27 28 29 24 19 15 18 22 18 16
122 93 100 109 111 113 114 118 117 109 99 93 78 73 87 65 33 347 351 338 311 295 223 183 136 122 122 122 125 123 120 130 151 153 140 141 152 152 155 160 130 142 150 146 160 115 52 311 299 47 68 60 49 33 24 25 34 42 46 49 57 64 67 64 61 62 64 64 59 55 49 43 40 37 34 31 32 34 30 26 20 17 13 9 8
119 96 111 118 116 119 120 116 108 109 113 106 102 99 83 62 28 341 353 349 285 267 240 178 72 80 104 128 131 131 150 170 173 157 145 147 170 157 136 136 147 166 160 131 140 103 69 133 46 25 199 99 61 42 37 52 66 73 82 84 87 86 79 69 64 63 60 59 58 56 54 50 49 47 44 39 36 33 28 19 9 4 1 1 2
123 111 113 121 126 125 122 122 114 107 111 115 117 104 73 59 33 336 337 316 300 289 218 106 112 117 121 134 144 159 178 184 170 158 158 155 162 158 133 129 128 146 148 118 152 128 84 120 96 43 2 219 176 62 56 78 94 91 96 95 91 80 71 58 49 49 44 42 41 40 40 38 38 40 39 37 33 27 17 6 358 354 354 354 355
133 129 119 117 127 130 128 132 125 104 99 111 111 96 74 49 23 350 331 303 305 331 99 87 232 184 156 144 152 166 190 201 191 169 161 151 152 161 147 139 124 118 123 82 137 149 113 110 108 67 42 65 204 90 49 52 69 80 87 84 79 60 43 31 20 17 17 17 18 16 13 10 9 9 9 8 6 1 356 352 349 346 345 346 349
138 137 144 130 130 139 138 137 134 124 105 112 106 88 90 63 29 2 347 313 306 62 121 326 350 144 153 167 165 173 205 223 209 170 156 158 159 158 146 137 136 132 128 117 125 141 133 110 106 97 83 92 144 219 19 17 9 12 12 13 24 24 13 4 0 358 357 359 0 360 357 352 346 341 338 336 333 331 331 332 333 335 337 338 342
141 140 154 143 138 143 143 143 135 135 123 115 104 72 69 54 27 360 353 334 330 75 86 13 45 75 127 234 166 142 203 219 183 148 154 163 154 145 138 132 148 148 137 138 137 128 119 112 116 120 120 109 126 158 293 343 350 350 347 342 336 343 360 2 357 352 346 345 346 349 350 347 342 335 330 326 322 319 317 319 321 323 327 331 335
147 144 155 153 148 144 144 148 139 137 127 105 93 60 40 43 27 10 14 347 339 23 76 57 54 60 50 40 134 108 297 203 141 27 333 146 134 136 138 139 153 151 145 154 154 139 129 119 124 132 133 121 114 122 156 333 347 337 339 343 335 331 345 360 357 346 339 335 333 336 338 338 338 335 332 328 324 320 317 316 316 318 321 326 331
162 152 155 162 153 146 141 145 145 140 128 112 115 97 61 54 27 12 32 6 349 13 61 95 76 70 58 54 81 91 326 331 105 346 344 67 108 152 147 141 148 149 152 165 158 154 168 142 125 128 106 109 107 83 27 347 341 324 331 340 336 331 335 347 352 345 334 329 327 326 328 328 329 329 329 328 326 324 322 320 317 317 318 322 327
176 155 154 163 154 153 145 146 152 132 118 121 120 112 91 73 34 35 43 30 17 16 23 62 78 52 31 52 80 66 13 11 51 15 350 20 32 156 155 146 146 157 164 169 164 161 185 183 156 171 133 108 134 26 355 331 327 328 329 328 326 326 327 333 343 342 331 324 322 321 321 321 321 323 323 323 324 323 324 324 320 318 318 320 324
180 154 151 161 160 160 150 155 165 143 150 172 135 139 134 113 105 115 77 48 39 24 19 28 62 58 31 44 63 52 59 52 34 44 43 336 1 27 137 140 143 161 167 171 171 164 191 192 174 186 170 127 135 57 8 344 337 333 324 320 320 320 320 325 333 334 329 322 318 317 317 318 318 318 318 318 319 321 322 323 322 320 319 320 321
181 158 152 164 170 170 162 169 175 162 173 190 159 157 148 144 175 126 93 59 41 39 32 20 34 69 49 37 37 39 79 83 31 62 75 51 10 0 32 73 118 145 145 169 176 172 197 192 181 195 205 168 128 52 358 324 325 328 321 317 319 319 318 323 327 330 330 325 320 318 316 315 315 315 314 313 313 317 319 320 320 319 319 319 319
181 172 170 174 177 175 171 177 176 167 173 181 176 178 169 171 178 118 100 73 55 54 38 16 27 52 64 59 34 28 51 44 33 78 71 58 20 1 48 38 24 80 73 289 208 202 185 168 176 183 164 146 94 3 328 312 313 321 324 319 315 316 318 319 321 328 334 330 325 323 320 317 316 315 312 309 309 313 317 318 318 316 315 316 316
179 181 185 185 183 176 178 184 179 171 174 176 178 186 188 184 174 147 140 109 74 69 37 16 11 359 341 245 221 137 57 11 66 70 58 52 13 26 63 42 16 9 357 298 257 275 130 123 165 169 138 118 330 319 321 315 310 316 325 324 319 320 323 319 312 317 328 327 325 325 324 322 321 319 313 308 306 309 314 317 317 315 313 312 312
180 184 187 188 187 184 184 184 176 172 178 180 182 195 198 177 168 164 152 141 129 123 76 17 353 345 340 323 303 162 139 40 119 115 99 101 284 115 109 47 21 332 315 322 277 287 310 242 245 224 227 291 307 313 320 318 311 315 323 323 318 318 323 318 306 309 321 322 321 324 326 327 327 324 317 309 305 307 311 315 317 317 315 313 312
184 185 187 188 186 188 188 179 173 175 176 178 181 185 187 165 162 177 153 149 167 148 125 355 355 352 351 350 345 340 13 76 135 152 137 150 261 41 47 347 285 230 233 283 292 292 307 301 255 236 255 281 297 303 317 324 315 313 316 316 312 314 322 319 306 307 317 318 319 323 324 327 332 330 322 313 307 305 307 310 314 316 316 315 313
185 183 185 185 182 184 186 178 175 178 172 172 174 171 184 173 164 185 178 162 177 171 179 288 290 320 350 359 344 340 350 21 269 312 112 111 60 58 36 341 316 275 219 211 249 275 301 308 268 259 261 263 287 303 316 329 322 309 303 304 310 319 327 323 311 306 313 316 317 319 318 323 334 336 330 322 313 309 307 308 311 314 316 317 315
185 185 182 179 178 178 183 181 179 182 175 173 177 177 190 189 170 186 189 171 184 189 210 270 259 270 309 319 322 330 344 356 344 358 59 72 62 92 130 319 322 320 304 241 245 250 267 272 247 247 263 267 299 321 325 328 322 308 297 297 302 310 320 322 313 308 312 313 314 313 309 316 333 340 337 331 323 316 313 310 311 314 316 317 317
180 182 179 176 175 175 180 184 182 183 181 178 181 184 188 190 188 201 200 189 197 193 209 261 268 276 268 268 308 308 328 355 343 351 55 65 24 40 198 188 140 342 328 318 307 289 295 298 265 239 254 279 321 330 323 317 315 320 319 311 302 303 315 320 314 310 311 309 309 305 301 309 330 340 339 335 329 323 320 316 315 316 316 317 316
177 179 179 177 177 177 181 186 185 185 188 183 183 187 187 189 200 208 208 214 214 201 232 269 265 280 276 246 253 271 284 314 292 298 5 287 305 330 284 234 141 130 289 311 328 316 315 321 315 265 252 284 322 324 318 310 312 331 331 318 307 309 315 316 312 311 311 308 304 297 293 304 327 338 338 336 333 329 326 322 319 317 316 315 315
181 181 180 180 181 183 186 188 186 187 194 192 187 192 194 195 206 212 215 228 235 227 252 273 268 275 282 272 282 286 275 279 267 241 248 230 212 259 269 264 172 192 236 244 289 297 304 314 316 306 294 303 314 317 318 316 318 323 321 315 314 314 312 309 307 309 310 311 306 292 287 303 326 336 338 336 334 332 331 328 323 320 317 316 315
185 180 178 182 184 186 189 189 188 189 195 196 191 196 201 200 207 216 220 222 229 238 248 260 268 267 267 270 286 301 300 299 303 292 269 247 236 253 264 269 257 237 236 237 251 280 295 303 306 307 308 311 314 317 317 316 318 321 322 324 321 316 312 305 303 308 314 319 315 301 295 308 323 332 336 336 335 333 333 332 328 324 321 319 317
184 179 180 186 186 187 190 191 192 192 195 198 196 197 203 207 213 221 222 213 216 232 245 254 262 257 254 254 261 272 279 284 290 289 280 265 248 240 249 261 256 240 240 239 239 263 281 294 301 303 308 312 315 316 315 313 316 318 321 322 319 315 311 305 305 313 321 322 317 313 315 316 319 326 330 333 334 332 333 333 330 327 324 321 318
185 184 188 191 189 191 193 197 199 194 193 199 201 200 204 212 218 226 227 212 215 231 244 254 261 261 257 250 253 258 259 262 269 274 277 272 254 240 235 236 237 240 239 234 237 266 284 291 297 300 306 311 310 312 317 319 317 315 314 314 312 312 313 315 321 326 325 323 323 328 328 321 316 319 323 327 327 327 330 332 328 325 323 322 318
190 191 192 194 195 194 194 200 202 197 195 200 204 204 206 212 218 224 227 222 227 237 243 250 258 264 264 257 256 257 255 255 253 257 268 274 276 274 259 247 254 260 251 242 247 269 286 294 301 303 305 310 313 316 319 318 315 313 314 315 314 316 321 327 332 330 328 334 337 333 329 325 319 318 320 321 320 320 326 329 325 320 319 319 317
194 196 195 195 196 195 197 200 199 201 202 200 206 211 210 213 218 224 230 228 228 233 239 246 248 251 255 255 257 257 258 259 251 250 266 273 285 298 298 300 310 309 303 298 290 287 291 295 300 304 306 311 315 313 313 314 313 313 319 323 322 320 321 325 327 327 330 334 330 327 332 335 329 322 319 318 315 317 324 325 322 317 314 312 313
195 200 203 201 194 191 197 200 196 201 205 201 207 215 214 217 220 226 235 235 235 235 238 244 246 247 248 248 253 254 258 270 267 260 269 274 279 288 290 293 298 294 294 299 300 300 300 298 297 301 305 307 306 306 308 311 313 315 319 319 316 313 314 318 323 326 326 325 325 330 337 335 328 323 322 322 320 321 323 323 321 317 312 308 306
198 196 199 202 196 191 196 204 200 202 208 208 210 215 217 220 221 226 235 239 244 247 249 252 251 250 252 251 254 253 256 267 271 266 266 267 273 279 282 288 288 286 290 296 301 300 294 293 298 303 304 301 301 306 311 312 314 315 314 312 313 315 310 306 316 324 325 324 326 330 328 323 322 325 327 328 326 323 324 324 322 318 313 308 301
201 199 201 201 199 195 199 207 206 207 211 212 215 218 219 222 223 228 232 236 244 248 251 258 259 255 253 252 253 252 254 260 262 266 270 269 273 276 278 287 291 292 294 294 295 296 293 292 296 300 303 301 303 309 313 314 311 307 303 302 308 314 308 304 320 329 325 322 323 323 320 320 324 325 324 323 322 321 321 322 322 320 317 314 306
203 206 210 204 199 200 204 209 210 212 213 213 216 217 217 223 229 233 233 235 245 248 246 252 261 263 257 253 253 248 245 252 258 265 271 269 270 275 277 283 290 292 296 297 297 298 301 301 299 299 302 305 307 304 301 302 303 301 295 289 294 311 322 326 330 327 321 321 322 323 323 322 322 322 320 320 319 320 322 324 324 322 321 324 320
206 208 210 208 206 205 206 209 210 213 215 215 216 217 216 223 233 241 243 244 249 253 252 252 260 271 268 261 257 249 243 248 252 255 264 266 264 271 281 291 299 301 301 301 302 303 304 302 301 301 302 303 302 297 293 293 298 303 304 298 302 326 341 334 326 322 321 321 322 323 324 322 320 320 320 320 322 326 328 328 326 324 327 332 333
209 210 209 211 215 211 207 209 208 209 217 219 220 223 224 226 230 238 244 246 250 256 261 261 262 272 276 273 268 258 252 253 245 245 254 256 255 264 277 286 291 293 295 295 296 300 303 301 301 302 303 302 303 309 319 320 316 321 332 339 340 339 336 327 322 322 322 322 323 323 323 322 320 320 321 323 327 329 330 330 328 329 331 333 333
208 213 208 202 204 207 208 210 207 204 210 216 221 226 227 228 229 230 235 241 249 257 264 269 271 275 280 284 281 271 262 260 256 254 255 252 255 267 274 278 280 279 281 285 287 289 293 296 299 303 304 306 313 325 330 327 328 337 346 345 337 330 327 324 321 322 324 327 328 324 323 325 324 322 323 325 327 328 329 330 330 330 330 330 332
210 215 210 203 204 207 204 200 200 202 208 214 221 223 222 223 224 224 233 245 254 264 269 270 276 283 287 291 290 284 274 267 260 256 256 255 262 272 275 276 279 278 278 280 281 283 286 290 295 299 301 305 312 318 321 323 329 335 334 330 325 323 324 324 319 318 320 323 325 322 320 325 327 323 322 324 325 327 327 326 330 332 332 331 330
216 217 217 219 220 219 208 192 187 202 216 216 218 219 217 219 222 222 231 247 257 268 273 270 274 282 283 287 298 315 310 286 271 261 266 269 272 274 273 277 283 283 282 280 277 279 281 283 286 289 291 297 305 313 320 326 330 329 328 326 325 324 322 319 311 309 312 317 320 318 316 322 326 323 321 324 325 326 327 328 334 336 334 332 330
227 225 223 226 227 230 230 199 184 200 212 207 207 212 214 219 222 223 229 245 262 270 277 281 283 284 284 295 327 2 340 301 287 274 277 283 285 284 281 280 285 292 295 291 285 281 277 273 272 276 283 292 303 314 321 325 328 330 330 328 327 324 318 311 306 307 313 318 320 316 314 322 329 325 321 323 326 328 331 331 333 334 332 333 337
237 253 245 243 245 242 239 174 166 185 193 191 196 205 209 214 218 221 227 241 263 271 277 285 293 305 317 323 349 14 10 325 300 287 283 280 300 318 315 304 303 309 308 305 302 295 286 280 276 280 288 293 299 312 323 329 333 335 331 326 325 322 314 309 311 316 321 329 331 325 318 324 331 326 320 322 325 328 328 325 328 335 336 336 342
219 293 271 253 264 285 51 116 143 158 167 176 187 197 206 212 219 227 235 246 263 275 289 308 327 5 30 33 26 26 29 7 334 327 320 295 292 324 330 326 324 321 316 320 332 339 332 319 305 300 301 301 304 316 330 335 336 335 330 325 324 322 316 315 320 325 330 338 341 338 326 324 330 327 322 324 325 323 321 323 330 337 336 335 341
195 214 227 230 241 255 116 158 161 142 146 171 187 200 210 217 225 234 245 257 271 299 347 22 42 37 50 75 73 49 19 10 359 353 348 331 308 315 325 330 331 325 321 326 334 342 345 340 333 328 322 317 317 322 329 333 332 331 331 332 335 334 328 325 326 330 335 336 338 341 331 323 326 325 321 323 325 323 322 324 329 330 328 333 339
189 201 204 197 198 194 180 179 172 148 144 167 190 207 215 221 220 210 222 287 297 24 42 43 50 57 67 98 108 62 5 358 348 338 336 335 329 327 330 334 329 323 325 325 321 323 323 319 320 324 323 322 323 325 329 334 335 337 341 344 347 344 338 334 330 332 335 330 327 334 331 320 320 323 320 321 324 325 327 330 330 328 331 336 337
155 189 201 178 140 146 153 156 157 150 138 136 169 200 213 227 219 197 216 282 254 106 86 61 44 46 53 62 65 12 351 341 335 329 326 326 329 335 339 336 329 327 333 333 327 324 322 320 322 326 327 330 336 340 344 349 352 356 358 357 355 353 348 342 334 330 330 322 320 332 331 322 323 328 326 323 323 325 331 336 336 335 337 338 334
132 165 192 171 128 126 133 134 136 136 127 116 120 149 164 177 166 144 135 129 113 113 100 72 55 3 17 28 23 10 357 349 343 337 331 332 336 343 349 346 339 335 327 324 327 330 331 333 333 334 335 341 350 358 2 1 1 0 357 355 356 357 350 341 340 338 327 314 329 339 335 326 328 333 333 329 322 324 334 338 337 338 340 341 334